Time,TemperatureF,DewpointF,PressureIn,WindDirection,WindDirectionDegrees,WindSpeedMPH,WindSpeedGustMPH,Humidity,HourlyPrecipIn,Conditions,Clouds,dailyrainin,SoftwareType,DateUTC
2013-09-26 00:14:00,53.0,51.0,29.94,North,351,0.0,1.0,92,0.00,,,0.00,,2013-09-26 04:14:00,
2013-09-26 00:24:00,52.0,50.0,29.94,NE,45,0.0,1.0,92,0.00,,,0.00,,2013-09-26 04:24:00,
2013-09-26 00:44:00,52.0,49.0,29.94,North,359,0.0,1.0,91,0.00,,,0.00,,2013-09-26 04:44:00,
2013-09-26 00:54:00,52.0,49.0,29.95,North,354,0.0,1.0,91,0.00,,,0.00,,2013-09-26 04:54:00,
2013-09-26 01:13:00,52.0,49.0,29.95,NNW,331,0.0,2.0,91,0.00,,,0.00,,2013-09-26 05:13:00,
2013-09-26 01:23:00,52.0,49.0,29.95,NNW,332,0.0,1.0,91,0.00,,,0.00,,2013-09-26 05:23:00,
2013-09-26 01:43:00,52.0,49.0,29.95,North,351,0.0,2.0,91,0.00,,,0.00,,2013-09-26 05:43:00,
2013-09-26 01:52:00,52.0,50.0,29.95,North,351,0.0,1.0,92,0.00,,,0.00,,2013-09-26 05:52:00,
2013-09-26 02:13:00,51.0,49.0,29.95,North,2,0.0,2.0,92,0.00,,,0.00,,2013-09-26 06:13:00,
2013-09-26 02:22:00,51.0,49.0,29.95,North,1,0.0,0.0,92,0.00,,,0.00,,2013-09-26 06:22:00,
2013-09-26 02:42:00,51.0,49.0,29.95,NE,36,0.0,0.0,93,0.00,,,0.00,,2013-09-26 06:42:00,
2013-09-26 02:54:00,50.0,48.0,29.95,NE,36,0.0,0.0,94,0.00,,,0.00,,2013-09-26 06:54:00,
2013-09-26 03:12:00,50.0,48.0,29.94,NE,36,0.0,1.0,94,0.00,,,0.00,,2013-09-26 07:12:00,
2013-09-26 03:22:00,50.0,49.0,29.94,NE,35,0.0,1.0,95,0.00,,,0.00,,2013-09-26 07:22:00,
2013-09-26 03:42:00,50.0,48.0,29.95,NE,34,0.0,1.0,94,0.00,,,0.00,,2013-09-26 07:42:00,
2013-09-26 03:53:00,49.0,48.0,29.95,North,11,1.0,1.0,95,0.00,,,0.00,,2013-09-26 07:53:00,
2013-09-26 04:11:00,49.0,48.0,29.95,North,9,0.0,0.0,95,0.00,,,0.00,,2013-09-26 08:11:00,
2013-09-26 04:22:00,49.0,48.0,29.95,North,8,0.0,0.0,96,0.00,,,0.00,,2013-09-26 08:22:00,
2013-09-26 04:42:00,49.0,48.0,29.96,North,8,0.0,0.0,96,0.00,,,0.00,,2013-09-26 08:42:00,
2013-09-26 04:52:00,49.0,48.0,29.96,North,8,0.0,0.0,96,0.00,,,0.00,,2013-09-26 08:52:00,
2013-09-26 05:11:00,49.0,48.0,29.96,NNE,28,0.0,0.0,96,0.00,,,0.00,,2013-09-26 09:11:00,
2013-09-26 05:22:00,49.0,48.0,29.96,NNE,28,0.0,0.0,96,0.00,,,0.00,,2013-09-26 09:22:00,
2013-09-26 05:43:00,49.0,48.0,29.97,NNE,25,0.0,0.0,96,0.00,,,0.00,,2013-09-26 09:43:00,
2013-09-26 05:54:00,49.0,48.0,29.97,NNE,25,0.0,0.0,96,0.00,,,0.00,,2013-09-26 09:54:00,
2013-09-26 06:12:00,49.0,48.0,29.97,NNE,25,0.0,0.0,97,0.00,,,0.00,,2013-09-26 10:12:00,
2013-09-26 06:23:00,50.0,49.0,29.98,NNE,25,0.0,0.0,97,0.00,,,0.00,,2013-09-26 10:23:00,
2013-09-26 06:42:00,50.0,49.0,29.98,North,356,0.0,1.0,97,0.00,,,0.00,,2013-09-26 10:42:00,
2013-09-26 06:53:00,50.0,49.0,29.98,North,359,0.0,1.0,96,0.00,,,0.00,,2013-09-26 10:53:00,
2013-09-26 07:12:00,50.0,49.0,29.99,North,3,0.0,2.0,97,0.00,,,0.00,,2013-09-26 11:12:00,
2013-09-26 07:22:00,51.0,50.0,29.99,North,359,0.0,1.0,97,0.00,,,0.00,,2013-09-26 11:22:00,
2013-09-26 07:42:00,52.0,51.0,29.99,NNW,340,0.0,1.0,96,0.00,,,0.00,,2013-09-26 11:42:00,
2013-09-26 07:52:00,53.0,52.0,30.00,NNE,23,0.0,1.0,95,0.00,,,0.00,,2013-09-26 11:52:00,
2013-09-26 08:12:00,54.0,53.0,30.00,NE,41,0.0,1.0,95,0.00,,,0.00,,2013-09-26 12:12:00,
2013-09-26 08:22:00,56.0,54.0,30.01,North,3,0.0,2.0,93,0.00,,,0.00,,2013-09-26 12:22:00,
2013-09-26 08:42:00,57.0,54.0,30.01,NW,320,2.0,6.0,91,0.00,,,0.00,,2013-09-26 12:42:00,
2013-09-26 08:52:00,58.0,55.0,30.01,North,9,0.0,7.0,89,0.00,,,0.00,,2013-09-26 12:52:00,
2013-09-26 09:12:00,59.0,55.0,30.01,NNW,341,1.0,6.0,87,0.00,,,0.00,,2013-09-26 13:12:00,
2013-09-26 09:22:00,61.0,56.0,30.01,North,357,0.0,7.0,84,0.00,,,0.00,,2013-09-26 13:22:00,
2013-09-26 09:42:00,61.0,56.0,30.02,NNE,21,1.0,7.0,83,0.00,,,0.00,,2013-09-26 13:42:00,
2013-09-26 09:52:00,61.0,56.0,30.02,NNE,30,0.0,4.0,84,0.00,,,0.00,,2013-09-26 13:52:00,
2013-09-26 10:11:00,62.0,56.0,30.03,NNE,27,0.0,6.0,82,0.00,,,0.00,,2013-09-26 14:11:00,
2013-09-26 10:22:00,62.0,57.0,30.03,NNE,22,0.0,6.0,83,0.00,,,0.00,,2013-09-26 14:22:00,
2013-09-26 10:42:00,62.0,56.0,30.03,NNW,333,0.0,5.0,82,0.00,,,0.00,,2013-09-26 14:42:00,
2013-09-26 10:52:00,63.0,56.0,30.03,East,89,0.0,4.0,79,0.00,,,0.00,,2013-09-26 14:52:00,
2013-09-26 11:11:00,64.0,57.0,30.03,North,349,1.0,4.0,77,0.00,,,0.00,,2013-09-26 15:11:00,
2013-09-26 11:22:00,64.0,57.0,30.03,ENE,78,3.0,7.0,77,0.00,,,0.00,,2013-09-26 15:22:00,
2013-09-26 11:44:00,65.0,58.0,30.03,ESE,122,0.0,2.0,77,0.00,,,0.00,,2013-09-26 15:44:00,
2013-09-26 11:54:00,66.0,58.0,30.03,East,88,0.0,3.0,75,0.00,,,0.00,,2013-09-26 15:54:00,
2013-09-26 12:13:00,66.0,57.0,30.03,East,101,0.0,3.0,74,0.00,,,0.00,,2013-09-26 16:13:00,
2013-09-26 12:24:00,65.0,57.0,30.03,NE,56,1.0,7.0,75,0.00,,,0.00,,2013-09-26 16:24:00,
2013-09-26 12:43:00,65.0,57.0,30.03,NNW,344,0.0,2.0,75,0.00,,,0.00,,2013-09-26 16:43:00,
2013-09-26 12:54:00,66.0,57.0,30.03,SE,138,0.0,5.0,72,0.00,,,0.00,,2013-09-26 16:54:00,
2013-09-26 13:12:00,67.0,58.0,30.03,NNE,24,0.0,3.0,72,0.00,,,0.00,,2013-09-26 17:12:00,
2013-09-26 13:23:00,66.0,57.0,30.03,ESE,119,1.0,5.0,72,0.00,,,0.00,,2013-09-26 17:23:00,
2013-09-26 13:43:00,66.0,57.0,30.02,NW,316,0.0,4.0,73,0.00,,,0.00,,2013-09-26 17:43:00,
2013-09-26 13:53:00,66.0,57.0,30.02,NW,316,0.0,4.0,73,0.00,,,0.00,,2013-09-26 17:53:00,
2013-09-26 14:13:00,67.0,56.0,30.02,NNW,333,0.0,4.0,68,0.00,,,0.00,,2013-09-26 18:13:00,
2013-09-26 14:22:00,67.0,56.0,30.01,SE,124,0.0,3.0,69,0.00,,,0.00,,2013-09-26 18:22:00,
2013-09-26 14:42:00,67.0,57.0,30.01,ESE,115,0.0,4.0,70,0.00,,,0.00,,2013-09-26 18:42:00,
2013-09-26 14:52:00,67.0,56.0,30.01,North,359,2.0,6.0,68,0.00,,,0.00,,2013-09-26 18:52:00,
2013-09-26 15:12:00,67.0,56.0,30.01,North,352,1.0,6.0,68,0.00,,,0.00,,2013-09-26 19:12:00,
2013-09-26 15:22:00,69.0,57.0,30.01,ENE,73,1.0,8.0,65,0.00,,,0.00,,2013-09-26 19:22:00,
2013-09-26 15:44:00,70.0,56.0,30.01,North,5,1.0,5.0,62,0.00,,,0.00,,2013-09-26 19:44:00,
2013-09-26 15:52:00,71.0,56.0,30.01,NNW,340,0.0,5.0,60,0.00,,,0.00,,2013-09-26 19:52:00,
2013-09-26 16:12:00,70.0,55.0,30.01,ESE,107,1.0,6.0,58,0.00,,,0.00,,2013-09-26 20:12:00,
2013-09-26 16:23:00,70.0,54.0,30.01,East,96,1.0,6.0,57,0.00,,,0.00,,2013-09-26 20:23:00,
2013-09-26 16:43:00,71.0,55.0,30.01,ESE,115,0.0,6.0,57,0.00,,,0.00,,2013-09-26 20:43:00,
2013-09-26 16:52:00,71.0,54.0,30.01,ENE,71,0.0,2.0,56,0.00,,,0.00,,2013-09-26 20:52:00,
2013-09-26 17:12:00,70.0,55.0,30.02,SE,125,0.0,4.0,58,0.00,,,0.00,,2013-09-26 21:12:00,
2013-09-26 17:23:00,68.0,54.0,30.02,East,96,0.0,1.0,62,0.00,,,0.00,,2013-09-26 21:23:00,
2013-09-26 17:44:00,68.0,55.0,30.02,East,99,0.0,0.0,64,0.00,,,0.00,,2013-09-26 21:44:00,
2013-09-26 17:54:00,67.0,54.0,30.03,ESE,108,0.0,2.0,64,0.00,,,0.00,,2013-09-26 21:54:00,
2013-09-26 18:14:00,65.0,55.0,30.03,ESE,108,0.0,1.0,69,0.00,,,0.00,,2013-09-26 22:14:00,
2013-09-26 18:24:00,66.0,56.0,30.03,ESE,116,0.0,1.0,71,0.00,,,0.00,,2013-09-26 22:24:00,
2013-09-26 18:43:00,66.0,56.0,30.03,ESE,115,0.0,0.0,71,0.00,,,0.00,,2013-09-26 22:43:00,
2013-09-26 18:54:00,65.0,57.0,30.04,ESE,114,0.0,1.0,75,0.00,,,0.00,,2013-09-26 22:54:00,
2013-09-26 19:12:00,63.0,55.0,30.04,ESE,113,0.0,0.0,76,0.00,,,0.00,,2013-09-26 23:12:00,
2013-09-26 19:23:00,61.0,55.0,30.04,ESE,109,0.0,0.0,81,0.00,,,0.00,,2013-09-26 23:23:00,
2013-09-26 19:42:00,59.0,54.0,30.05,ESE,116,0.0,0.0,84,0.00,,,0.00,,2013-09-26 23:42:00,
2013-09-26 19:53:00,58.0,54.0,30.05,East,97,0.0,0.0,86,0.00,,,0.00,,2013-09-26 23:53:00,
2013-09-26 20:22:00,57.0,53.0,30.06,East,90,0.0,0.0,87,0.00,,,0.00,,2013-09-27 00:22:00,
2013-09-26 20:43:00,58.0,53.0,30.07,NNW,328,0.0,0.0,84,0.00,,,0.00,,2013-09-27 00:43:00,
2013-09-26 20:52:00,59.0,54.0,30.07,NNE,32,0.0,4.0,82,0.00,,,0.00,,2013-09-27 00:52:00,
2013-09-26 21:12:00,59.0,52.0,30.08,NNW,334,0.0,2.0,79,0.00,,,0.00,,2013-09-27 01:12:00,
2013-09-26 21:23:00,58.0,52.0,30.08,NNE,14,0.0,1.0,81,0.00,,,0.00,,2013-09-27 01:23:00,
2013-09-26 21:42:00,58.0,53.0,30.09,NNE,14,0.0,1.0,82,0.00,,,0.00,,2013-09-27 01:42:00,
2013-09-26 21:52:00,58.0,53.0,30.09,North,10,0.0,2.0,83,0.00,,,0.00,,2013-09-27 01:52:00,
2013-09-26 22:12:00,57.0,52.0,30.09,North,4,0.0,1.0,83,0.00,,,0.00,,2013-09-27 02:12:00,
2013-09-26 22:22:00,56.0,51.0,30.09,NNE,13,0.0,1.0,84,0.00,,,0.00,,2013-09-27 02:22:00,
2013-09-26 22:43:00,56.0,52.0,30.10,NNE,16,0.0,1.0,85,0.00,,,0.00,,2013-09-27 02:43:00,
2013-09-26 22:53:00,54.0,50.0,30.10,NNE,16,0.0,0.0,87,0.00,,,0.00,,2013-09-27 02:53:00,
2013-09-26 23:12:00,53.0,50.0,30.10,NNE,16,0.0,0.0,88,0.00,,,0.00,,2013-09-27 03:12:00,
2013-09-26 23:22:00,53.0,50.0,30.10,NNE,15,0.0,1.0,91,0.00,,,0.00,,2013-09-27 03:22:00,
2013-09-26 23:44:00,52.0,50.0,30.10,NNE,14,0.0,1.0,93,0.00,,,0.00,,2013-09-27 03:44:00,
2013-09-26 23:55:00,52.0,50.0,30.10,East,92,0.0,1.0,92,0.00,,,0.00,,2013-09-27 03:55:00,